Regional Weather Roundup
Issued by NWS Little Rock, AR

Home | Current Version | Previous Version | Text Only | Print | Product List | Glossary On
Versions: 1 2 3 4 5 6 7 8 9 10 11 12 13 14 15 16 17 18 19 20 21 22 23 24 25 26 27 28 29 30 31 32 33 34 35 36 37 38 39 40 41 42 43 44 45 46 47 48 49 50
000
ASUS44 KLZK 090705
RWRLZK

WEATHER ROUNDUP FOR ARKANSAS
NATIONAL WEATHER SERVICE LITTLE ROCK AR
100 AM CST FRI DEC 09 2016

NOTE: "FAIR" INDICATES FEW OR NO CLOUDS BELOW 12,000 FEET WITH NO
SIGNIFICANT WEATHER AND/OR OBSTRUCTIONS TO VISIBILITY.

ARZ001-003-010-029-090800-
NORTHWEST ARKANSAS

CITY           SKY/WX    TMP DP  RH WIND       PRES   REMARKS
FAYETTEVILLE   CLEAR     16  11  80 CALM      30.62F
FORT SMITH     CLEAR     24  13  62 N7        30.67F WCI  16
HARRISON       CLEAR     18  13  80 NW6       30.60F WCI  10
BENTONVILLE    CLEAR     19  10  68 N3        30.62F
ROGERS         CLEAR     19  12  74 N3        30.62F
SILOAM SPGS    CLEAR     18  10  73 CALM      30.62F
HIGHFILL       CLEAR     17  11  77 N6        30.61F WCI   9
$$

ARZ004-005-016-090800-
NORTH CENTRAL ARKANSAS

CITY           SKY/WX    TMP DP  RH WIND       PRES   REMARKS
BATESVILLE     PTCLDY    25  12  58 N7        30.65R WCI  17
FLIPPIN        CLEAR     23  10  58 NW3       30.60F
MTN HOME       CLEAR     21  13  71 N5        30.62S WCI  15
$$

ARZ040-041-090800-
WEST CENTRAL ARKANSAS

CITY           SKY/WX    TMP DP  RH WIND       PRES   REMARKS
MENA           CLOUDY    30  14  51 N6        30.62S WCI  24
$$

ARZ009-017-025-026-028-090800-
NORTHEAST ARKANSAS

CITY           SKY/WX    TMP DP  RH WIND       PRES   REMARKS
CORNING        FAIR      27  16  63 N8        30.64R WCI  18
JONESBORO      CLEAR     27  16  63 NW3       30.63R
NEWPORT        CLEAR     24  18  77 NW9       30.65S WCI  14
WALNUT RIDGE   CLEAR     25  14  63 NW8       30.63S WCI  16
BLYTHEVILLE    CLEAR     27  20  75 N10       30.62R WCI  17
$$

ARZ022-023-033-042-044-090800-
CENTRAL ARKANSAS

CITY           SKY/WX    TMP DP  RH WIND       PRES   REMARKS
LITTLE ROCK    CLEAR     27  14  58 N10       30.65S WCI  17
N LITTLE ROCK    N/A     26  14  60 N5        30.67S WCI  21
JACKSONVILLE   CLEAR     27  14  57 NW3       30.64R
SEARCY         PTCLDY    26  16  65 N7        30.66R WCI  18
HOT SPRINGS    CLEAR     26  16  65 N3        30.64R
RUSSELLVILLE   PTCLDY    21  14  74 CALM      30.65R
CLINTON        FAIR      25  16  68 CALM      30.65R
$$

ARZ036-090800-
EAST ARKANSAS

CITY           SKY/WX    TMP DP  RH WIND       PRES   REMARKS
WEST MEMPHIS   CLEAR     28  18  66 N6        30.60S WCI  22
$$

ARZ050-053-066-070-073-090800-
SOUTHWEST ARKANSAS

CITY           SKY/WX    TMP DP  RH WIND       PRES   REMARKS
ARKADELPHIA    FAIR      25  23  92 CALM      30.66S
CAMDEN         PTCLDY    25  21  86 CALM      30.65S
TEXARKANA      PTCLDY    27  17  66 NW6       30.64F WCI  20
EL DORADO      PTCLDY    28  22  78 NW5       30.63F WCI  23
DE QUEEN       CLEAR     22  21  96 CALM      30.65S
$$

ARZ056-057-069-090800-
SOUTHEAST ARKANSAS

CITY           SKY/WX    TMP DP  RH WIND       PRES   REMARKS
PINE BLUFF     CLEAR     27  18  69 N6        30.64S WCI  20
STUTTGART      CLEAR     28  16  59 N10       30.64S WCI  19
MONTICELLO     PTCLDY    28  19  69 CALM      30.62S

$$





USA.gov is the U.S. government's official web portal to all federal, state and local government web resources and services.